{"data":{"norad_id":44703,"intl_designator":"2019-072A","name":"GAOFEN-7","alt_names":[],"object_type":"PAYLOAD","status":"ACTIVE","operator":null,"country":"PRC","launch_date":"2019-11-03","launch_site_code":"TAISC","launch_vehicle":null,"mission":null,"orbit_class":"UNKNOWN","rcs_meters":null,"size_class":null,"mass_kg":null,"dimensions":null,"purposes":[],"wikipedia_slug":null,"has_3d_model":false,"image_url":null,"decayed_at":null,"tle_current":{"epoch":"2026-05-25T04:19:48.359712Z","epoch_age_seconds":55467,"freshness":"FRESH","line1":"1 44703U 19072A   26145.18042083  .00004062  00000+0  18332-3 0  9992","line2":"2 44703  97.2440 207.5094 0018178 114.6924 245.6207 15.21393333364142","mean_motion":15.21393333,"eccentricity":0.0018178,"inclination_deg":97.244,"raan_deg":207.5094,"arg_perigee_deg":114.6924,"mean_anomaly_deg":245.6207,"bstar":0.00018332,"rev_number":36414,"period_min":94.650079553096,"perigee_km":489.13089742022,"apogee_km":514.14300359469,"semimajor_km":6879.7739505075,"source":"CELESTRAK","updated_at":"2026-05-25T13:37:56.004978Z"}}}